Location: *
(45.9500°N, 9.0833°E)
Time: 15:25:39
(UTC+00:00)

ARGOS - Pass Details

Date: 03 March 2021
Orbit: 819 x 835 km, 98.4° (Epoch: 14 April)

Event Time Altitude Azimuth Distance (km) Brightness Sun altitude
Rises 17:48:58 0° 150° (SSE) 3,368 6.0 -7.0°
Reaches altitude 10° 17:51:21 10° 146° (SE) 2,439 5.3 -7.4°
Maximum altitude 17:56:37 55° 70° (ENE) 1,005 3.3 -8.4°
Drops below altitude 10° 18:01:55 10° 354° (N) 2,458 5.7 -9.3°
Sets 18:04:19 0° 351° (N) 3,396 6.5 -9.7°
